Regional Weather Roundup
Issued by NWS

Home | Current Version | Previous Version | Graphics & Text | Print | Product List | Glossary Off
Versions: 1 2 3 4 5 6 7 8 9 10 11 12 13 14 15 16 17 18 19 20 21 22 23 24 25 26 27 28 29 30 31 32 33 34 35 36 37 38 39 40 41 42 43 44 45 46 47 48 49 50

000
ASUS43 KLSX 240610
RWRMO

WEATHER SUMMARY FOR MISSOURI
NATIONAL WEATHER SERVICE SPRINGFIELD MO
100 AM CDT FRI MAR 24 2017

NOTE: "FAIR" INDICATES FEW OR NO CLOUDS BELOW 12,000 FEET WITH NO
       SIGNIFICANT WEATHER AND/OR OBSTRUCTIONS TO VISIBILITY.
       CURRENT SKY AND/OR WEATHER CONDITIONS ARE NOT AVAILABLE FOR
       CHILLICOTHE AND FARMINGTON.

MOZ001>031-035>038-043-044-053-054-240700-
...NORTHERN AND WESTERN MISSOURI...

CITY           SKY/WX    TMP DP  RH WIND       PRES   REMARKS
KANSAS CTY INT CLOUDY    68  48  48 S20       29.77S
6HR MIN TEMP:  68; 6HR MAX TEMP:  76;

KANSAS C DTWN  PTCLDY    71  48  43 S14G25    29.78S
6HR MIN TEMP:  71; 6HR MAX TEMP:  78;

LEE`S SUMMIT   PTCLDY    69  47  45 S16G29    29.79F
6HR MIN TEMP:  69; 6HR MAX TEMP:  76;

ST JOSEPH      MOCLDY    69  49  48 S16       29.77R
6HR MIN TEMP:  69; 6HR MAX TEMP:  77;

CHILLICOTHE      N/A     67  47  48 S9G17     29.81F
6HR MIN TEMP:  67; 6HR MAX TEMP:  76;

KIRKSVILLE     CLOUDY    50  32  50 S9        29.85F
6HR MIN TEMP:  47; 6HR MAX TEMP:  62;


$$
MOZ066>068-077>081-088>096-101>105-240700-
...SOUTHWEST MISSOURI...

CITY           SKY/WX    TMP DP  RH WIND       PRES   REMARKS
SPRINGFIELD    CLEAR     67  48  50 SE18      29.89F
6HR MIN TEMP:  66; 6HR MAX TEMP:  75;

JOPLIN         CLEAR     71  48  43 S21G28    29.85S
6HR MIN TEMP:  69; 6HR MAX TEMP:  74;

BRANSON        CLEAR     68  46  45 S10       29.95F

$$
MOZ032>034-039>042-045>050-055>058-069>072-240700-
...CENTRAL MISSOURI...

CITY           SKY/WX    TMP DP  RH WIND       PRES   REMARKS
COLUMBIA       PTCLDY    64  52  64 S13       29.88F
6HR MIN TEMP:  64; 6HR MAX TEMP:  75;

JEFFERSON CITY CLOUDY    69  51  52 SE8       29.89F
6HR MIN TEMP:  68; 6HR MAX TEMP:  79;

ROLLA          CLEAR     66  51  58 S20G26    29.91F
6HR MIN TEMP:  64; 6HR MAX TEMP:  72;

SEDALIA        PTCLDY    68  51  54 S14       29.87S
6HR MIN TEMP:  68; 6HR MAX TEMP:  75;

WHITEMAN AFB   CLEAR     66  50  56 S15       29.83S
WARRENSBURG    CLOUDY    68  45  42 S22G28    29.81F
OSAGE BEACH    CLOUDY   N/A N/A N/A S12G22    29.90F

$$
MOZ051-052-059>065-240700-
...EAST CENTRAL MISSOURI...

CITY           SKY/WX    TMP DP  RH WIND       PRES   REMARKS
ST LOUIS INTL  PTCLDY    58  43  57 SE13      29.96F
6HR MIN TEMP:  58; 6HR MAX TEMP:  62;

SPIRIT OF STL  CLEAR     61  48  62 VRB6      29.93F
6HR MIN TEMP:  60; 6HR MAX TEMP:  63;

ST CHARLES     CLEAR     48  44  86 E12       29.94F
6HR MIN TEMP:  47; 6HR MAX TEMP:  58;


$$
MOZ072>076-082>087-097>100-106>115-240700-
...SOUTH CENTRAL AND SOUTHEAST MISSOURI...

CITY           SKY/WX    TMP DP  RH WIND       PRES   REMARKS
CAPE GIRARDEAU CLEAR     60  47  61 S12       30.05F
6HR MIN TEMP:  54; 6HR MAX TEMP:  63;

FARMINGTON     CLEAR     63  50  62 S15G22    30.02F
6HR MIN TEMP:  57; 6HR MAX TEMP:  63;

POPLAR BLUFF   CLEAR     63  53  70 S10       30.03F
6HR MIN TEMP:  60; 6HR MAX TEMP:  65;

WEST PLAINS    CLEAR     64  52  64 SE14G21   30.01F
6HR MIN TEMP:  62; 6HR MAX TEMP:  69;


$$




USA.gov is the U.S. government's official web portal to all federal, state and local government web resources and services.